This is the latest recevied weather packets stored in our database for station/object KA2FNK. If no packets are shown the sender has not sent any weather packets the latest 10 day(s).
| Time | Temp. | Humidity | Pressure | Rain* | Wind** | Luminosity | Snow |
|---|---|---|---|---|---|---|---|
| 1777876341 | 18.89° C | 51% | 1006.1 hPa | 0 mm | - | - | - |
| 1777876040 | 18.89° C | 50% | 1006.2 hPa | 0 mm | - | - | - |
| 1777875739 | 18.89° C | 51% | 1006.3 hPa | 0 mm | - | - | - |
| 1777875438 | 18.89° C | 51% | 1006.3 hPa | 0 mm | - | - | - |
| 1777875137 | 18.33° C | 53% | 1006.3 hPa | 0 mm | - | - | - |
| 1777874836 | 18.33° C | 54% | 1006.4 hPa | 0 mm | - | - | - |
| 1777874535 | 17.78° C | 56% | 1006.5 hPa | 0 mm | - | - | - |
| 1777874234 | 17.78° C | 58% | 1006.5 hPa | 0 mm | - | - | - |
| 1777873933 | 17.78° C | 59% | 1006.5 hPa | 0 mm | - | - | - |
| 1777873632 | 17.78° C | 59% | 1006.5 hPa | 0 mm | - | - | - |
| 1777873331 | 17.78° C | 60% | 1006.5 hPa | 0 mm | - | - | - |
| 1777873030 | 17.22° C | 64% | 1006.6 hPa | 0 mm | - | - | - |
| 1777872729 | 17.22° C | 64% | 1006.8 hPa | 0 mm | - | - | - |
| 1777872428 | 17.22° C | 63% | 1006.9 hPa | 0 mm | - | - | - |
| 1777872127 | 17.22° C | 64% | 1007.1 hPa | 0 mm | - | - | - |
| 1777871826 | 17.22° C | 64% | 1007.2 hPa | 0 mm | - | - | - |
| 1777871525 | 17.78° C | 63% | 1007.2 hPa | 0 mm | - | - | - |
| 1777871224 | 17.78° C | 62% | 1007.3 hPa | 0 mm | - | - | - |
| 1777870923 | 17.78° C | 61% | 1007.3 hPa | 0 mm | - | - | - |
| 1777870622 | 18.33° C | 60% | 1007.3 hPa | 0 mm | - | - | - |
| 1777870321 | 18.33° C | 60% | 1007.2 hPa | 0 mm | - | - | - |
| 1777870020 | 18.33° C | 60% | 1007.2 hPa | 0 mm | - | - | - |
| 1777869719 | 18.33° C | 59% | 1007.3 hPa | 0 mm | - | - | - |
| 1777869418 | 18.33° C | 57% | 1007.3 hPa | 0 mm | - | - | - |
| 1777869117 | 18.33° C | 59% | 1007.3 hPa | 0 mm | - | - | - |
* Rain latest hour (hover to see other rain measurements)
** Current wind speed in m/s (hover to see current wind gust speed)